Flight Track Log - Related Links

Times and Time Zones

All times are in EST time to prevent confusion due to time zone crossing. See the JZA8813 flight status page for this flight to view local times or setup timezone preferences in your user account.

Time Position Orientation Groundspeed Altitude Reporting Facility
EST Latitude Longitude Course Direction KTS MPH feet Rate Location/Type
Fri 05:56:04 PM 46.1500 -60.0500 243° Southwest 120 138 900  Level Moncton Center
Fri 05:57:04 PM 46.1333 -60.1000 244° Southwest 140 161 2,500 1,450 Climbing Moncton Center
Fri 05:58:04 PM 46.1000 -60.1500 226° Southwest 150 173 3,800 1,400 Climbing Moncton Center
Fri 05:59:00 PM 46.0432 -60.3866 243° Southwest  Level Estimated
Fri 05:59:04 PM 46.0833 -60.2000 244° Southwest 160 184 5,300  Level Moncton Center
Fri 06:00:00 PM 46.0131 -60.4708 243° Southwest  Level FlightAware Approximate
Fri 06:00:04 PM 46.0667 -60.2667 250° West 170 196 6,600  Level Moncton Center
Fri 06:01:00 PM 45.9829 -60.5549 243° Southwest  Level FlightAware Approximate
Fri 06:01:04 PM 46.0333 -60.3167 226° Southwest 170 196 8,000  Level Moncton Center
Fri 06:02:04 PM 46.0167 -60.4000 254° West 170 196 9,200 1,000 Climbing Moncton Center
Fri 06:03:04 PM 45.9833 -60.4500 226° Southwest 170 196 10,000 400 Climbing Moncton Center
Fri 06:04:04 PM 45.9833 -60.5167 270° West 190 219 10,000  Level Moncton Center
Fri 06:05:04 PM 45.9500 -60.6000 240° Southwest 210 242 10,000  Level Moncton Center
Fri 06:06:04 PM 45.9167 -60.6667 234° Southwest 210 242 10,000  Level Moncton Center
Fri 06:07:04 PM 45.9000 -60.7500 254° West 210 242 10,000  Level Moncton Center
Fri 06:08:04 PM 45.8667 -60.8167 234° Southwest 210 242 10,000  Level Moncton Center
Fri 06:09:04 PM 45.8333 -60.8833 234° Southwest 210 242 10,000  Level Moncton Center
Fri 06:10:04 PM 45.8000 -60.9667 240° Southwest 210 242 10,000  Level Moncton Center
Fri 06:11:04 PM 45.7833 -61.0667 257° West 220 253 10,000  Level Moncton Center
Fri 06:12:04 PM 45.7667 -61.1333 250° West 210 242 10,000  Level Moncton Center
Fri 06:13:04 PM 45.7333 -61.2167 240° Southwest 210 242 10,000  Level Moncton Center
Fri 06:14:04 PM 45.7000 -61.2833 234° Southwest 220 253 10,000  Level Moncton Center
Fri 06:15:04 PM 45.6667 -61.3500 234° Southwest 220 253 10,000  Level Moncton Center
Fri 06:16:04 PM 45.6500 -61.4333 254° West 220 253 10,000 50 Level Moncton Center
Fri 06:17:04 PM 45.6167 -61.5000 234° Southwest 220 253 10,100 50 Climbing Moncton Center
Fri 06:18:04 PM 45.5833 -61.5833 240° Southwest 220 253 10,100  Level Moncton Center
Fri 06:19:04 PM 45.5500 -61.6500 234° Southwest 220 253 10,100  Level Moncton Center
Fri 06:20:04 PM 45.5333 -61.7500 257° West 220 253 10,100  Level Moncton Center
Fri 06:21:04 PM 45.5167 -61.8167 250° West 210 242 10,100  Level Moncton Center
Fri 06:22:04 PM 45.4833 -61.9000 240° Southwest 220 253 10,100  Level Moncton Center
Fri 06:23:04 PM 45.4500 -61.9667 235° Southwest 220 253 10,100  Level Moncton Center
Fri 06:24:04 PM 45.4167 -62.0333 235° Southwest 220 253 10,100  Level Moncton Center
Fri 06:25:04 PM 45.3833 -62.1333 245° Southwest 220 253 10,100  Level Moncton Center
Fri 06:26:04 PM 45.3667 -62.2000 250° West 220 253 10,100  Level Moncton Center
Fri 06:27:04 PM 45.3333 -62.2833 240° Southwest 220 253 10,100  Level Moncton Center
Fri 06:28:04 PM 45.3000 -62.3500 235° Southwest 220 253 10,100  Level Moncton Center
Fri 06:29:04 PM 45.2667 -62.4167 235° Southwest 220 253 10,100  Level Moncton Center
Fri 06:30:04 PM 45.2333 -62.5167 245° Southwest 220 253 10,100  Level Moncton Center
Fri 06:31:04 PM 45.2167 -62.6000 254° West 220 253 10,100 -300 Level Moncton Center
Fri 06:32:04 PM 45.1833 -62.6667 235° Southwest 220 253 9,500 -800 Descending Moncton Center
Fri 06:33:04 PM 45.1500 -62.7333 235° Southwest 240 276 8,500 -1,000 Descending Moncton Center
Fri 06:34:04 PM 45.1167 -62.8333 245° Southwest 240 276 7,500 -1,000 Descending Moncton Center
Fri 06:35:04 PM 45.0833 -62.9000 235° Southwest 230 265 6,500 -1,050 Descending Moncton Center
Fri 06:36:04 PM 45.0333 -62.9833 230° Southwest 220 253 5,400 -1,000 Descending Moncton Center
Fri 06:37:04 PM 45.0000 -63.0500 235° Southwest 220 253 4,500 -1,000 Descending Moncton Center
Fri 06:38:04 PM 44.9667 -63.1167 235° Southwest 220 253 3,400 -1,000 Descending Moncton Center
Fri 06:39:04 PM 44.9333 -63.2000 241° Southwest 220 253 2,500 -700 Descending Moncton Center
Fri 06:40:04 PM 44.9167 -63.2667 251° West 210 242 2,000 -300 Descending Moncton Center
Fri 06:42:04 PM 44.8667 -63.3833 239° Southwest 170 196 1,600 -300 Descending Moncton Center
Fri 06:43:04 PM 44.8500 -63.4333 245° Southwest 120 138 1,100 -450 Descending Moncton Center
Fri 06:44:04 PM 44.8667 -63.4833 295° West 100 115 700 -300 Descending Moncton Center
Fri 06:45:04 PM 44.8833 -63.5000 325° Northwest 110 127 500 -200 Descending Moncton Center

Login

Don't have an account? Register now (free) for customized features, flight alerts, and more!